Overview Statistics Trail Chart Weather Telemetry Raw packets
 

This is the latest recevied weather packets stored in our database for station/object N0RPM-13. If no packets are shown the sender has not sent any weather packets the latest 10 day(s).

<< 106 107 108 109 110 111 112 >>
Time Temp. Humidity Pressure Rain* Wind** Luminosity Snow
1787763582 23.89° C 59% 1015.5 hPa 0 mm - 914 W/m² -
1787763278 23.89° C 58% 1015.8 hPa 0 mm - 220 W/m² -
1787762978 23.89° C 58% 1015.5 hPa 0 mm - 233 W/m² -
1787762677 23.33° C 60% 1015.7 hPa 0 mm - 916 W/m² -
1787762376 23.89° C 60% 1015.5 hPa 0 mm - 152 W/m² -
1787762074 23.89° C 59% 1015.4 hPa 0 mm - 153 W/m² -
1787761769 23.33° C 61% 1015.6 hPa 0 mm - 874 W/m² -
1787761464 22.78° C 62% 1015.5 hPa 0 mm - 210 W/m² -
1787761159 22.78° C 63% 1015.5 hPa 0 mm - 130 W/m² -
1787760859 23.33° C 62% 1015.3 hPa 0 mm - 129 W/m² -
1787760557 23.33° C 62% 1015.3 hPa 0 mm - 319 W/m² -
1787760251 23.33° C 62% 1015.3 hPa 0 mm - 172 W/m² -
1787759949 23.33° C 61% 1015.4 hPa 0 mm - 112 W/m² -
1787759643 23.89° C 59% 1015.3 hPa 0 mm - 146 W/m² -
1787759340 23.89° C 60% 1015.1 hPa 0 mm - 203 W/m² -
1787759040 23.89° C 61% 1015 hPa 0 mm - 262 W/m² -
1787758740 23.33° C 61% 1014.9 hPa 0 mm - 431 W/m² -
1787758435 23.33° C 62% 1015.1 hPa 0 mm - 564 W/m² -
1787758133 23.33° C 63% 1015.3 hPa 0 mm - 619 W/m² -
1787757830 22.78° C 65% 1015 hPa 0 mm - 549 W/m² -
1787757525 22.78° C 65% 1015.2 hPa 0 mm - 249 W/m² -
1787757219 22.78° C 66% 1015 hPa 0 mm - 289 W/m² -
1787756918 22.78° C 67% 1015.2 hPa 0 mm - 285 W/m² -
1787756614 22.22° C 67% 1015.1 hPa 0 mm - 258 W/m² -
1787756313 22.22° C 68% 1015.1 hPa 0 mm - 273 W/m² -

* Rain latest hour (hover to see other rain measurements)
** Current wind speed in m/s (hover to see current wind gust speed)